Time,TemperatureF,DewpointF,PressureIn,WindDirection,WindDirectionDegrees,WindSpeedMPH,WindSpeedGustMPH,Humidity,HourlyPrecipIn,Conditions,Clouds,dailyrainin,SoftwareType,DateUTC
2013-05-15 00:01:00,68.3,56.5,30.08,East,93,0.0,0.0,66,0.00,,,0.00,Wunderground v.1.15,2013-05-15 04:01:00,
2013-05-15 00:02:00,68.3,56.5,30.08,East,93,0.0,0.0,66,0.00,,,0.00,Wunderground v.1.15,2013-05-15 04:02:00,
2013-05-15 00:07:00,68.1,56.3,30.08,East,86,2.0,3.0,66,0.00,,,0.00,Wunderground v.1.15,2013-05-15 04:07:00,
2013-05-15 00:12:00,67.8,56.0,30.08,ESE,110,0.0,0.0,66,0.00,,,0.00,Wunderground v.1.15,2013-05-15 04:12:00,
2013-05-15 00:17:00,67.6,55.8,30.08,East,85,0.0,1.0,66,0.00,,,0.00,Wunderground v.1.15,2013-05-15 04:17:00,
2013-05-15 00:22:00,67.4,55.6,30.08,East,89,0.0,0.0,66,0.00,,,0.00,Wunderground v.1.15,2013-05-15 04:22:00,
2013-05-15 00:27:00,67.3,56.0,30.08,ENE,64,0.0,0.0,67,0.00,,,0.00,Wunderground v.1.15,2013-05-15 04:27:00,
2013-05-15 00:32:00,67.1,55.8,30.08,ENE,62,0.0,1.0,67,0.00,,,0.00,Wunderground v.1.15,2013-05-15 04:32:00,
2013-05-15 00:37:00,66.9,55.6,30.08,ENE,71,0.0,3.0,67,0.00,,,0.00,Wunderground v.1.15,2013-05-15 04:37:00,
2013-05-15 00:42:00,66.9,55.6,30.08,ENE,71,0.0,0.0,67,0.00,,,0.00,Wunderground v.1.15,2013-05-15 04:42:00,
2013-05-15 00:47:00,66.8,55.5,30.08,ENE,71,0.0,1.0,67,0.00,,,0.00,Wunderground v.1.15,2013-05-15 04:47:00,
2013-05-15 00:52:00,66.6,55.3,30.08,ENE,68,0.0,1.0,67,0.00,,,0.00,Wunderground v.1.15,2013-05-15 04:52:00,
2013-05-15 00:57:00,66.4,55.1,30.08,ENE,75,0.0,1.0,67,0.00,,,0.00,Wunderground v.1.15,2013-05-15 04:57:00,
2013-05-15 01:02:00,66.3,55.4,30.08,ENE,78,0.0,0.0,68,0.00,,,0.00,Wunderground v.1.15,2013-05-15 05:02:00,
2013-05-15 01:07:00,66.1,55.2,30.08,ENE,66,0.0,0.0,68,0.00,,,0.00,Wunderground v.1.15,2013-05-15 05:07:00,
2013-05-15 01:13:00,66.1,55.2,30.08,ENE,75,0.0,0.0,68,0.00,,,0.00,Wunderground v.1.15,2013-05-15 05:13:00,
2013-05-15 01:18:00,66.0,55.1,30.08,ENE,75,0.0,0.0,68,0.00,,,0.00,Wunderground v.1.15,2013-05-15 05:18:00,
2013-05-15 01:23:00,66.0,55.1,30.08,ENE,65,0.0,0.0,68,0.00,,,0.00,Wunderground v.1.15,2013-05-15 05:23:00,
2013-05-15 01:28:00,65.8,54.9,30.08,ENE,76,0.0,1.0,68,0.00,,,0.00,Wunderground v.1.15,2013-05-15 05:28:00,
2013-05-15 01:33:00,65.8,54.9,30.08,ENE,66,0.0,1.0,68,0.00,,,0.00,Wunderground v.1.15,2013-05-15 05:33:00,
2013-05-15 01:38:00,65.8,54.9,30.08,East,89,0.0,3.0,68,0.00,,,0.00,Wunderground v.1.15,2013-05-15 05:38:00,
2013-05-15 01:43:00,65.8,54.9,30.08,East,85,0.0,0.0,68,0.00,,,0.00,Wunderground v.1.15,2013-05-15 05:43:00,
2013-05-15 01:48:00,65.8,54.9,30.08,ENE,73,0.0,2.0,68,0.00,,,0.00,Wunderground v.1.15,2013-05-15 05:48:00,
2013-05-15 01:53:00,65.8,54.9,30.08,ENE,78,0.0,0.0,68,0.00,,,0.00,Wunderground v.1.15,2013-05-15 05:53:00,
2013-05-15 01:58:00,65.8,54.9,30.08,East,79,0.0,3.0,68,0.00,,,0.00,Wunderground v.1.15,2013-05-15 05:58:00,
2013-05-15 02:03:00,65.6,54.8,30.08,ENE,76,0.0,0.0,68,0.00,,,0.00,Wunderground v.1.15,2013-05-15 06:03:00,
2013-05-15 02:08:00,65.6,54.8,30.08,ENE,76,0.0,2.0,68,0.00,,,0.00,Wunderground v.1.15,2013-05-15 06:08:00,
2013-05-15 02:13:00,65.6,55.2,30.08,ENE,78,0.0,0.0,69,0.00,,,0.00,Wunderground v.1.15,2013-05-15 06:13:00,
2013-05-15 02:18:00,65.6,55.2,30.07,East,90,0.0,2.0,69,0.00,,,0.00,Wunderground v.1.15,2013-05-15 06:18:00,
2013-05-15 02:23:00,65.6,55.2,30.07,East,90,0.0,0.0,69,0.00,,,0.00,Wunderground v.1.15,2013-05-15 06:23:00,
2013-05-15 02:28:00,65.6,55.2,30.07,East,90,0.0,0.0,69,0.00,,,0.00,Wunderground v.1.15,2013-05-15 06:28:00,
2013-05-15 02:33:00,65.5,55.1,30.07,East,90,0.0,0.0,69,0.00,,,0.00,Wunderground v.1.15,2013-05-15 06:33:00,
2013-05-15 02:38:00,65.5,55.1,30.07,East,90,0.0,0.0,69,0.00,,,0.00,Wunderground v.1.15,2013-05-15 06:38:00,
2013-05-15 02:43:00,65.3,54.9,30.07,East,90,0.0,0.0,69,0.00,,,0.00,Wunderground v.1.15,2013-05-15 06:43:00,
2013-05-15 02:48:00,65.2,54.8,30.07,East,90,0.0,0.0,69,0.00,,,0.00,Wunderground v.1.15,2013-05-15 06:48:00,
2013-05-15 02:53:00,65.0,54.6,30.07,East,90,0.0,0.0,69,0.00,,,0.00,Wunderground v.1.15,2013-05-15 06:53:00,
2013-05-15 02:58:00,64.8,54.8,30.07,East,90,0.0,0.0,70,0.00,,,0.00,Wunderground v.1.15,2013-05-15 06:58:00,
2013-05-15 03:03:00,64.8,54.8,30.06,East,90,0.0,0.0,70,0.00,,,0.00,Wunderground v.1.15,2013-05-15 07:03:00,
2013-05-15 03:08:00,64.7,54.7,30.06,East,90,0.0,0.0,70,0.00,,,0.00,Wunderground v.1.15,2013-05-15 07:08:00,
2013-05-15 03:13:00,64.5,54.5,30.06,East,90,0.0,0.0,70,0.00,,,0.00,Wunderground v.1.15,2013-05-15 07:13:00,
2013-05-15 03:18:00,64.3,54.3,30.06,East,90,0.0,0.0,70,0.00,,,0.00,Wunderground v.1.15,2013-05-15 07:18:00,
2013-05-15 03:23:00,64.3,54.3,30.06,East,90,0.0,0.0,70,0.00,,,0.00,Wunderground v.1.15,2013-05-15 07:23:00,
2013-05-15 03:28:00,64.2,54.2,30.06,East,90,0.0,0.0,70,0.00,,,0.00,Wunderground v.1.15,2013-05-15 07:28:00,
2013-05-15 03:33:00,64.0,54.4,30.06,East,90,0.0,0.0,71,0.00,,,0.00,Wunderground v.1.15,2013-05-15 07:33:00,
2013-05-15 03:38:00,63.9,54.3,30.06,East,90,0.0,0.0,71,0.00,,,0.00,Wunderground v.1.15,2013-05-15 07:38:00,
2013-05-15 03:43:00,63.9,54.3,30.06,East,90,0.0,0.0,71,0.00,,,0.00,Wunderground v.1.15,2013-05-15 07:43:00,
2013-05-15 03:48:00,63.7,54.5,30.05,East,90,0.0,0.0,72,0.00,,,0.00,Wunderground v.1.15,2013-05-15 07:48:00,
2013-05-15 03:53:00,63.5,54.3,30.05,East,90,0.0,0.0,72,0.00,,,0.00,Wunderground v.1.15,2013-05-15 07:53:00,
2013-05-15 03:58:00,63.4,54.2,30.05,East,90,0.0,0.0,72,0.00,,,0.00,Wunderground v.1.15,2013-05-15 07:58:00,
2013-05-15 04:03:00,63.4,54.2,30.05,East,90,0.0,0.0,72,0.00,,,0.00,Wunderground v.1.15,2013-05-15 08:03:00,
2013-05-15 04:08:00,63.2,54.0,30.05,East,90,0.0,0.0,72,0.00,,,0.00,Wunderground v.1.15,2013-05-15 08:08:00,
2013-05-15 04:13:00,63.2,54.0,30.05,East,90,0.0,0.0,72,0.00,,,0.00,Wunderground v.1.15,2013-05-15 08:13:00,
2013-05-15 04:18:00,63.1,54.3,30.05,East,90,0.0,0.0,73,0.00,,,0.00,Wunderground v.1.15,2013-05-15 08:18:00,
2013-05-15 04:23:00,63.1,54.3,30.05,East,90,0.0,0.0,73,0.00,,,0.00,Wunderground v.1.15,2013-05-15 08:23:00,
2013-05-15 04:28:00,62.9,54.1,30.05,East,90,0.0,0.0,73,0.00,,,0.00,Wunderground v.1.15,2013-05-15 08:28:00,
2013-05-15 04:33:00,62.9,54.1,30.05,East,90,0.0,0.0,73,0.00,,,0.00,Wunderground v.1.15,2013-05-15 08:33:00,
2013-05-15 04:38:00,62.7,53.9,30.05,East,90,0.0,0.0,73,0.00,,,0.00,Wunderground v.1.15,2013-05-15 08:38:00,
2013-05-15 04:43:00,62.6,53.8,30.05,East,90,0.0,0.0,73,0.00,,,0.00,Wunderground v.1.15,2013-05-15 08:43:00,
2013-05-15 04:48:00,62.6,53.8,30.05,East,90,0.0,0.0,73,0.00,,,0.00,Wunderground v.1.15,2013-05-15 08:48:00,
2013-05-15 04:54:00,62.4,54.0,30.05,East,90,0.0,0.0,74,0.00,,,0.00,Wunderground v.1.15,2013-05-15 08:54:00,
2013-05-15 04:59:00,62.4,54.0,30.05,East,90,0.0,0.0,74,0.00,,,0.00,Wunderground v.1.15,2013-05-15 08:59:00,
2013-05-15 05:04:00,62.4,54.0,30.05,East,90,0.0,0.0,74,0.00,,,0.00,Wunderground v.1.15,2013-05-15 09:04:00,
2013-05-15 05:09:00,62.3,53.9,30.05,East,90,0.0,0.0,74,0.00,,,0.00,Wunderground v.1.15,2013-05-15 09:09:00,
2013-05-15 05:14:00,62.3,53.9,30.05,East,90,0.0,0.0,74,0.00,,,0.00,Wunderground v.1.15,2013-05-15 09:14:00,
2013-05-15 05:19:00,62.1,53.7,30.05,East,90,0.0,0.0,74,0.00,,,0.00,Wunderground v.1.15,2013-05-15 09:19:00,
2013-05-15 05:24:00,62.1,54.1,30.05,East,90,0.0,0.0,75,0.00,,,0.00,Wunderground v.1.15,2013-05-15 09:24:00,
2013-05-15 05:29:00,62.1,54.1,30.05,East,90,0.0,0.0,75,0.00,,,0.00,Wunderground v.1.15,2013-05-15 09:29:00,
2013-05-15 05:34:00,62.1,54.4,30.06,East,90,0.0,0.0,76,0.00,,,0.00,Wunderground v.1.15,2013-05-15 09:34:00,
2013-05-15 05:39:00,62.1,54.4,30.06,East,90,0.0,0.0,76,0.00,,,0.00,Wunderground v.1.15,2013-05-15 09:39:00,
2013-05-15 05:44:00,62.0,54.3,30.06,East,90,0.0,0.0,76,0.00,,,0.00,Wunderground v.1.15,2013-05-15 09:44:00,
2013-05-15 05:49:00,62.0,54.3,30.06,East,90,0.0,0.0,76,0.00,,,0.00,Wunderground v.1.15,2013-05-15 09:49:00,
2013-05-15 05:54:00,62.0,54.3,30.06,East,90,0.0,0.0,76,0.00,,,0.00,Wunderground v.1.15,2013-05-15 09:54:00,
2013-05-15 05:59:00,61.8,54.2,30.06,East,90,0.0,0.0,76,0.00,,,0.00,Wunderground v.1.15,2013-05-15 09:59:00,
2013-05-15 06:04:00,61.8,54.2,30.07,East,90,0.0,0.0,76,0.00,,,0.00,Wunderground v.1.15,2013-05-15 10:04:00,
2013-05-15 06:09:00,61.8,54.2,30.07,East,90,0.0,0.0,76,0.00,,,0.00,Wunderground v.1.15,2013-05-15 10:09:00,
2013-05-15 06:14:00,61.8,54.2,30.07,East,90,0.0,0.0,76,0.00,,,0.00,Wunderground v.1.15,2013-05-15 10:14:00,
2013-05-15 06:19:00,61.8,54.2,30.07,East,90,0.0,0.0,76,0.00,,,0.00,Wunderground v.1.15,2013-05-15 10:19:00,
2013-05-15 06:24:00,61.6,54.0,30.07,East,90,0.0,0.0,76,0.00,,,0.00,Wunderground v.1.15,2013-05-15 10:24:00,
2013-05-15 06:29:00,61.6,54.0,30.07,East,90,0.0,0.0,76,0.00,,,0.00,Wunderground v.1.15,2013-05-15 10:29:00,
2013-05-15 06:34:00,61.5,53.9,30.07,East,90,0.0,0.0,76,0.00,,,0.00,Wunderground v.1.15,2013-05-15 10:34:00,
2013-05-15 06:39:00,61.5,53.9,30.07,East,90,0.0,0.0,76,0.00,,,0.00,Wunderground v.1.15,2013-05-15 10:39:00,
2013-05-15 06:44:00,61.5,54.2,30.07,East,90,0.0,0.0,77,0.00,,,0.00,Wunderground v.1.15,2013-05-15 10:44:00,
2013-05-15 06:49:00,61.3,54.0,30.07,East,90,0.0,0.0,77,0.00,,,0.00,Wunderground v.1.15,2013-05-15 10:49:00,
2013-05-15 06:54:00,61.3,54.0,30.07,East,90,0.0,0.0,77,0.00,,,0.00,Wunderground v.1.15,2013-05-15 10:54:00,
2013-05-15 06:59:00,61.3,54.0,30.07,East,90,0.0,0.0,77,0.00,,,0.00,Wunderground v.1.15,2013-05-15 10:59:00,
2013-05-15 07:05:00,61.2,53.9,30.07,East,90,0.0,0.0,77,0.00,,,0.00,Wunderground v.1.15,2013-05-15 11:05:00,
2013-05-15 07:10:00,61.2,53.9,30.07,East,90,0.0,0.0,77,0.00,,,0.00,Wunderground v.1.15,2013-05-15 11:10:00,
2013-05-15 07:15:00,61.3,54.4,30.07,East,92,0.0,0.0,78,0.00,,,0.00,Wunderground v.1.15,2013-05-15 11:15:00,
2013-05-15 07:20:00,61.5,54.9,30.07,East,92,0.0,0.0,79,0.00,,,0.00,Wunderground v.1.15,2013-05-15 11:20:00,
2013-05-15 07:26:00,61.8,55.2,30.07,East,90,0.0,0.0,79,0.00,,,0.00,Wunderground v.1.15,2013-05-15 11:26:00,
2013-05-15 07:31:00,62.1,55.9,30.08,East,90,0.0,0.0,80,0.00,,,0.00,Wunderground v.1.15,2013-05-15 11:31:00,
2013-05-15 07:36:00,62.6,56.3,30.08,East,90,0.0,0.0,80,0.00,,,0.00,Wunderground v.1.15,2013-05-15 11:36:00,
2013-05-15 07:41:00,63.1,56.8,30.08,East,90,0.0,0.0,80,0.00,,,0.00,Wunderground v.1.15,2013-05-15 11:41:00,
2013-05-15 07:46:00,63.7,57.4,30.07,East,90,0.0,1.0,80,0.00,,,0.00,Wunderground v.1.15,2013-05-15 11:46:00,
2013-05-15 07:51:00,64.3,58.0,30.07,East,90,0.0,0.0,80,0.00,,,0.00,Wunderground v.1.15,2013-05-15 11:51:00,
2013-05-15 07:56:00,65.0,58.3,30.07,East,90,0.0,0.0,79,0.00,,,0.00,Wunderground v.1.15,2013-05-15 11:56:00,
2013-05-15 08:01:00,65.8,59.1,30.08,East,90,0.0,0.0,79,0.00,,,0.00,Wunderground v.1.15,2013-05-15 12:01:00,
2013-05-15 08:06:00,66.4,59.3,30.08,East,90,0.0,0.0,78,0.00,,,0.00,Wunderground v.1.15,2013-05-15 12:06:00,
2013-05-15 08:11:00,67.1,59.6,30.08,East,90,0.0,0.0,77,0.00,,,0.00,Wunderground v.1.15,2013-05-15 12:11:00,
2013-05-15 08:16:00,67.8,60.0,30.08,East,90,0.0,3.0,76,0.00,,,0.00,Wunderground v.1.15,2013-05-15 12:16:00,
2013-05-15 08:21:00,68.4,60.5,30.08,East,90,0.0,0.0,76,0.00,,,0.00,Wunderground v.1.15,2013-05-15 12:21:00,
2013-05-15 08:27:00,68.9,60.6,30.08,East,90,0.0,0.0,75,0.00,,,0.00,Wunderground v.1.15,2013-05-15 12:27:00,
2013-05-15 08:32:00,69.6,60.9,30.09,East,89,0.0,0.0,74,0.00,,,0.00,Wunderground v.1.15,2013-05-15 12:32:00,
2013-05-15 08:37:00,69.9,60.8,30.09,East,90,0.0,5.0,73,0.00,,,0.00,Wunderground v.1.15,2013-05-15 12:37:00,
2013-05-15 08:43:00,70.4,60.9,30.09,ESE,102,0.0,1.0,72,0.00,,,0.00,Wunderground v.1.15,2013-05-15 12:43:00,
2013-05-15 08:48:00,70.9,61.0,30.10,East,89,0.0,1.0,71,0.00,,,0.00,Wunderground v.1.15,2013-05-15 12:48:00,
2013-05-15 08:53:00,71.5,61.2,30.10,East,90,0.0,0.0,70,0.00,,,0.00,Wunderground v.1.15,2013-05-15 12:53:00,
2013-05-15 08:58:00,71.8,61.5,30.10,East,85,0.0,2.0,70,0.00,,,0.00,Wunderground v.1.15,2013-05-15 12:58:00,
2013-05-15 09:03:00,72.3,61.6,30.10,East,86,0.0,2.0,69,0.00,,,0.00,Wunderground v.1.15,2013-05-15 13:03:00,
2013-05-15 09:09:00,72.7,61.5,30.10,ENE,73,0.0,5.0,68,0.00,,,0.00,Wunderground v.1.15,2013-05-15 13:09:00,
2013-05-15 09:14:00,73.0,61.4,30.10,South,175,0.0,1.0,67,0.00,,,0.00,Wunderground v.1.15,2013-05-15 13:14:00,
2013-05-15 09:19:00,73.5,61.4,30.10,ENE,76,0.0,1.0,66,0.00,,,0.00,Wunderground v.1.15,2013-05-15 13:19:00,
2013-05-15 09:24:00,73.9,61.4,30.10,East,79,0.0,4.0,65,0.00,,,0.00,Wunderground v.1.15,2013-05-15 13:24:00,
2013-05-15 09:29:00,74.4,61.4,30.10,ENE,69,0.0,6.0,64,0.00,,,0.00,Wunderground v.1.15,2013-05-15 13:29:00,
2013-05-15 09:34:00,74.9,61.9,30.11,East,82,0.0,1.0,64,0.00,,,0.00,Wunderground v.1.15,2013-05-15 13:34:00,
2013-05-15 09:40:00,75.3,61.4,30.11,NE,52,0.0,0.0,62,0.00,,,0.00,Wunderground v.1.15,2013-05-15 13:40:00,
2013-05-15 09:45:00,75.6,61.2,30.10,East,100,0.0,9.0,61,0.00,,,0.00,Wunderground v.1.15,2013-05-15 13:45:00,
2013-05-15 09:50:00,76.0,61.1,30.10,ENE,65,0.0,2.0,60,0.00,,,0.00,Wunderground v.1.15,2013-05-15 13:50:00,
2013-05-15 09:55:00,76.3,61.4,30.10,ESE,103,0.0,2.0,60,0.00,,,0.00,Wunderground v.1.15,2013-05-15 13:55:00,
2013-05-15 10:01:00,76.8,61.4,30.10,ESE,107,0.0,5.0,59,0.00,,,0.00,Wunderground v.1.15,2013-05-15 14:01:00,
2013-05-15 10:06:00,77.4,61.0,30.10,SE,136,0.0,5.0,57,0.00,,,0.00,Wunderground v.1.15,2013-05-15 14:06:00,
2013-05-15 10:12:00,77.7,61.3,30.10,ENE,75,0.0,1.0,57,0.00,,,0.00,Wunderground v.1.15,2013-05-15 14:12:00,
2013-05-15 10:17:00,77.9,60.4,30.10,NE,55,0.0,7.0,55,0.00,,,0.00,Wunderground v.1.15,2013-05-15 14:17:00,
2013-05-15 10:22:00,78.3,60.8,30.10,SSE,147,0.0,1.0,55,0.00,,,0.00,Wunderground v.1.15,2013-05-15 14:22:00,
2013-05-15 10:27:00,78.6,61.1,30.10,ENE,62,0.0,1.0,55,0.00,,,0.00,Wunderground v.1.15,2013-05-15 14:27:00,
2013-05-15 10:33:00,78.8,60.2,30.10,SE,127,0.0,0.0,53,0.00,,,0.00,Wunderground v.1.15,2013-05-15 14:33:00,
2013-05-15 10:38:00,79.0,60.4,30.10,SE,131,0.0,2.0,53,0.00,,,0.00,Wunderground v.1.15,2013-05-15 14:38:00,
2013-05-15 10:43:00,79.4,60.8,30.10,SE,144,0.0,9.0,53,0.00,,,0.00,Wunderground v.1.15,2013-05-15 14:43:00,
2013-05-15 10:48:00,79.8,60.1,30.10,SE,133,3.0,9.0,51,0.00,,,0.00,Wunderground v.1.15,2013-05-15 14:48:00,
2013-05-15 10:54:00,80.1,60.3,30.10,ESE,112,0.0,5.0,51,0.00,,,0.00,Wunderground v.1.15,2013-05-15 14:54:00,
2013-05-15 10:59:00,80.1,60.3,30.10,ESE,102,0.0,5.0,51,0.00,,,0.00,Wunderground v.1.15,2013-05-15 14:59:00,
2013-05-15 11:05:00,80.5,60.1,30.10,ENE,66,0.0,3.0,50,0.00,,,0.00,Wunderground v.1.15,2013-05-15 15:05:00,
2013-05-15 11:10:00,80.9,60.5,30.10,ESE,123,0.0,0.0,50,0.00,,,0.00,Wunderground v.1.15,2013-05-15 15:10:00,
2013-05-15 11:15:00,81.2,60.2,30.09,East,100,0.0,5.0,49,0.00,,,0.00,Wunderground v.1.15,2013-05-15 15:15:00,
2013-05-15 11:20:00,81.6,60.0,30.09,SSE,161,1.0,7.0,48,0.00,,,0.00,Wunderground v.1.15,2013-05-15 15:20:00,
2013-05-15 11:25:00,81.8,59.0,30.09,SSE,160,0.0,7.0,46,0.00,,,0.00,Wunderground v.1.15,2013-05-15 15:25:00,
2013-05-15 11:30:00,82.2,59.4,30.09,South,175,0.0,7.0,46,0.00,,,0.00,Wunderground v.1.15,2013-05-15 15:30:00,
2013-05-15 11:35:00,82.6,59.1,30.09,East,100,0.0,7.0,45,0.00,,,0.00,Wunderground v.1.15,2013-05-15 15:35:00,
2013-05-15 11:40:00,83.0,58.2,30.09,North,3,0.0,7.0,43,0.00,,,0.00,Wunderground v.1.15,2013-05-15 15:40:00,
2013-05-15 11:45:00,83.4,58.6,30.09,North,359,0.0,7.0,43,0.00,,,0.00,Wunderground v.1.15,2013-05-15 15:45:00,
2013-05-15 11:51:00,83.4,58.6,30.09,South,172,1.0,7.0,43,0.00,,,0.00,Wunderground v.1.15,2013-05-15 15:51:00,
2013-05-15 11:56:00,83.4,57.2,30.09,SSE,167,1.0,7.0,41,0.00,,,0.00,Wunderground v.1.15,2013-05-15 15:56:00,
2013-05-15 12:01:00,83.4,57.2,30.09,SE,140,1.0,7.0,41,0.00,,,0.00,Wunderground v.1.15,2013-05-15 16:01:00,
2013-05-15 12:06:00,83.6,57.4,30.09,North,354,0.0,7.0,41,0.00,,,0.00,Wunderground v.1.15,2013-05-15 16:06:00,
2013-05-15 12:11:00,83.8,57.6,30.09,SE,145,0.0,7.0,41,0.00,,,0.00,Wunderground v.1.15,2013-05-15 16:11:00,
2013-05-15 12:17:00,84.0,57.8,30.09,SSE,148,0.0,7.0,41,0.00,,,0.00,Wunderground v.1.15,2013-05-15 16:17:00,
2013-05-15 12:22:00,84.0,56.4,30.09,North,0,0.0,7.0,39,0.00,,,0.00,Wunderground v.1.15,2013-05-15 16:22:00,
2013-05-15 12:27:00,84.3,56.6,30.09,North,352,0.0,7.0,39,0.00,,,0.00,Wunderground v.1.15,2013-05-15 16:27:00,
2013-05-15 12:32:00,84.9,57.2,30.08,ESE,102,0.0,7.0,39,0.00,,,0.00,Wunderground v.1.15,2013-05-15 16:32:00,
2013-05-15 12:37:00,85.1,55.9,30.08,SE,145,0.0,7.0,37,0.00,,,0.00,Wunderground v.1.15,2013-05-15 16:37:00,
2013-05-15 12:42:00,85.3,56.1,30.08,SE,145,0.0,7.0,37,0.00,,,0.00,Wunderground v.1.15,2013-05-15 16:42:00,
2013-05-15 12:47:00,85.5,55.5,30.07,ESE,107,0.0,7.0,36,0.00,,,0.00,Wunderground v.1.15,2013-05-15 16:47:00,
2013-05-15 12:53:00,85.7,54.9,30.07,East,92,1.0,7.0,35,0.00,,,0.00,Wunderground v.1.15,2013-05-15 16:53:00,
2013-05-15 12:58:00,85.7,54.9,30.07,North,0,0.0,7.0,35,0.00,,,0.00,Wunderground v.1.15,2013-05-15 16:58:00,
2013-05-15 13:03:00,85.9,54.3,30.07,ESE,104,0.0,7.0,34,0.00,,,0.00,Wunderground v.1.15,2013-05-15 17:03:00,
2013-05-15 13:10:00,85.9,53.5,30.07,East,86,1.0,7.0,33,0.00,,,0.00,Wunderground v.1.15,2013-05-15 17:10:00,
2013-05-15 13:15:00,86.1,53.6,30.07,North,349,0.0,7.0,33,0.00,,,0.00,Wunderground v.1.15,2013-05-15 17:15:00,
2013-05-15 13:20:00,86.5,53.1,30.06,WNW,284,0.0,7.0,32,0.00,,,0.00,Wunderground v.1.15,2013-05-15 17:20:00,
2013-05-15 13:25:00,87.0,53.6,30.06,NE,40,0.0,7.0,32,0.00,,,0.00,Wunderground v.1.15,2013-05-15 17:25:00,
2013-05-15 13:30:00,87.4,53.9,30.06,South,169,0.0,7.0,32,0.00,,,0.00,Wunderground v.1.15,2013-05-15 17:30:00,
2013-05-15 13:36:00,87.8,53.4,30.06,North,0,0.0,7.0,31,0.00,,,0.00,Wunderground v.1.15,2013-05-15 17:36:00,
2013-05-15 13:41:00,88.0,53.6,30.06,ESE,114,2.0,7.0,31,0.00,,,0.00,Wunderground v.1.15,2013-05-15 17:41:00,
2013-05-15 13:46:00,88.2,52.9,30.06,North,0,2.0,7.0,30,0.00,,,0.00,Wunderground v.1.15,2013-05-15 17:46:00,
2013-05-15 13:51:00,88.4,53.0,30.06,NE,55,1.0,7.0,30,0.00,,,0.00,Wunderground v.1.15,2013-05-15 17:51:00,
2013-05-15 13:56:00,88.8,54.3,30.06,WSW,257,1.0,7.0,31,0.00,,,0.00,Wunderground v.1.15,2013-05-15 17:56:00,
2013-05-15 14:01:00,89.0,56.2,30.05,West,281,1.0,7.0,33,0.00,,,0.00,Wunderground v.1.15,2013-05-15 18:01:00,
2013-05-15 14:07:00,89.0,57.0,30.05,West,272,1.0,8.0,34,0.00,,,0.00,Wunderground v.1.15,2013-05-15 18:07:00,
2013-05-15 14:12:00,88.8,57.6,30.05,NW,308,1.0,7.0,35,0.00,,,0.00,Wunderground v.1.15,2013-05-15 18:12:00,
2013-05-15 14:18:00,88.2,57.1,30.05,WSW,253,1.0,8.0,35,0.00,,,0.00,Wunderground v.1.15,2013-05-15 18:18:00,
2013-05-15 14:23:00,87.6,56.6,30.05,North,0,1.0,7.0,35,0.00,,,0.00,Wunderground v.1.15,2013-05-15 18:23:00,
2013-05-15 14:28:00,87.4,56.4,30.05,WNW,288,0.0,7.0,35,0.00,,,0.00,Wunderground v.1.15,2013-05-15 18:28:00,
2013-05-15 14:33:00,87.2,57.0,30.04,NNW,342,0.0,7.0,36,0.00,,,0.00,Wunderground v.1.15,2013-05-15 18:33:00,
2013-05-15 14:38:00,87.2,57.8,30.04,WNW,282,0.0,7.0,37,0.00,,,0.00,Wunderground v.1.15,2013-05-15 18:38:00,
2013-05-15 14:43:00,87.2,58.5,30.04,East,79,1.0,7.0,38,0.00,,,0.00,Wunderground v.1.15,2013-05-15 18:43:00,
2013-05-15 14:48:00,86.7,58.1,30.04,NNW,332,3.0,13.0,38,0.00,,,0.00,Wunderground v.1.15,2013-05-15 18:48:00,
2013-05-15 14:54:00,86.3,58.4,30.04,WNW,284,3.0,7.0,39,0.00,,,0.00,Wunderground v.1.15,2013-05-15 18:54:00,
2013-05-15 14:59:00,86.1,58.2,30.04,WNW,285,1.0,7.0,39,0.00,,,0.00,Wunderground v.1.15,2013-05-15 18:59:00,
2013-05-15 15:04:00,86.1,58.2,30.04,WNW,301,1.0,11.0,39,0.00,,,0.00,Wunderground v.1.15,2013-05-15 19:04:00,
2013-05-15 15:09:00,85.9,58.1,30.04,NNE,17,1.0,11.0,39,0.00,,,0.00,Wunderground v.1.15,2013-05-15 19:09:00,
2013-05-15 15:14:00,85.5,58.4,30.04,NW,316,2.0,7.0,40,0.00,,,0.00,Wunderground v.1.15,2013-05-15 19:14:00,
2013-05-15 15:19:00,85.3,58.2,30.03,North,352,2.0,10.0,40,0.00,,,0.00,Wunderground v.1.15,2013-05-15 19:19:00,
2013-05-15 15:24:00,85.3,58.2,30.03,North,1,1.0,7.0,40,0.00,,,0.00,Wunderground v.1.15,2013-05-15 19:24:00,
2013-05-15 15:30:00,85.3,58.2,30.03,NW,312,0.0,7.0,40,0.00,,,0.00,Wunderground v.1.15,2013-05-15 19:30:00,
2013-05-15 15:35:00,85.3,58.9,30.02,WSW,254,0.0,7.0,41,0.00,,,0.00,Wunderground v.1.15,2013-05-15 19:35:00,
2013-05-15 15:40:00,85.3,58.2,30.02,NW,305,0.0,7.0,40,0.00,,,0.00,Wunderground v.1.15,2013-05-15 19:40:00,
2013-05-15 15:45:00,85.1,58.1,30.02,South,174,1.0,7.0,40,0.00,,,0.00,Wunderground v.1.15,2013-05-15 19:45:00,
2013-05-15 15:50:00,84.9,57.9,30.02,West,275,0.0,7.0,40,0.00,,,0.00,Wunderground v.1.15,2013-05-15 19:50:00,
2013-05-15 15:56:00,84.7,58.4,30.02,NNW,344,1.0,8.0,41,0.00,,,0.00,Wunderground v.1.15,2013-05-15 19:56:00,
2013-05-15 16:01:00,84.5,58.2,30.01,WNW,289,1.0,7.0,41,0.00,,,0.00,Wunderground v.1.15,2013-05-15 20:01:00,
2013-05-15 16:06:00,84.3,58.0,30.01,NW,309,1.0,7.0,41,0.00,,,0.00,Wunderground v.1.15,2013-05-15 20:06:00,
2013-05-15 16:11:00,84.1,58.5,30.01,North,357,1.0,7.0,42,0.00,,,0.00,Wunderground v.1.15,2013-05-15 20:11:00,
2013-05-15 16:16:00,84.0,58.4,30.01,North,0,2.0,12.0,42,0.00,,,0.00,Wunderground v.1.15,2013-05-15 20:16:00,
2013-05-15 16:21:00,84.0,58.4,30.01,WNW,298,1.0,7.0,42,0.00,,,0.00,Wunderground v.1.15,2013-05-15 20:21:00,
2013-05-15 16:27:00,83.8,58.3,30.01,West,281,1.0,7.0,42,0.00,,,0.00,Wunderground v.1.15,2013-05-15 20:27:00,
2013-05-15 16:32:00,83.6,58.1,30.01,North,357,1.0,11.0,42,0.00,,,0.00,Wunderground v.1.15,2013-05-15 20:32:00,
2013-05-15 16:37:00,83.4,57.9,30.01,NNW,346,1.0,11.0,42,0.00,,,0.00,Wunderground v.1.15,2013-05-15 20:37:00,
2013-05-15 16:42:00,83.2,58.4,30.01,NNW,344,1.0,7.0,43,0.00,,,0.00,Wunderground v.1.15,2013-05-15 20:42:00,
2013-05-15 16:48:00,83.0,57.5,30.00,North,350,1.0,7.0,42,0.00,,,0.00,Wunderground v.1.15,2013-05-15 20:48:00,
2013-05-15 16:53:00,82.8,57.4,30.00,NW,320,1.0,7.0,42,0.00,,,0.00,Wunderground v.1.15,2013-05-15 20:53:00,
2013-05-15 16:58:00,82.6,57.8,30.00,North,6,1.0,7.0,43,0.00,,,0.00,Wunderground v.1.15,2013-05-15 20:58:00,
2013-05-15 17:03:00,82.4,57.7,29.99,NNE,25,0.0,7.0,43,0.00,,,0.00,Wunderground v.1.15,2013-05-15 21:03:00,
2013-05-15 17:08:00,82.4,57.7,29.99,NW,325,2.0,12.0,43,0.00,,,0.00,Wunderground v.1.15,2013-05-15 21:08:00,
2013-05-15 17:13:00,82.2,57.5,29.99,NNW,329,2.0,7.0,43,0.00,,,0.00,Wunderground v.1.15,2013-05-15 21:13:00,
2013-05-15 17:18:00,81.8,57.8,29.99,NNW,332,1.0,7.0,44,0.00,,,0.00,Wunderground v.1.15,2013-05-15 21:18:00,
2013-05-15 17:24:00,81.6,57.6,29.99,North,359,1.0,9.0,44,0.00,,,0.00,Wunderground v.1.15,2013-05-15 21:24:00,
2013-05-15 18:06:00,80.5,58.4,29.99,North,349,1.0,1.0,47,0.00,,,0.00,Wunderground v.1.15,2013-05-15 22:06:00,
2013-05-15 18:11:00,80.3,57.6,29.99,NNW,340,0.0,1.0,46,0.00,,,0.00,Wunderground v.1.15,2013-05-15 22:11:00,
2013-05-15 18:17:00,80.1,58.0,29.98,NW,316,0.0,6.0,47,0.00,,,0.00,Wunderground v.1.15,2013-05-15 22:17:00,
2013-05-15 18:22:00,80.1,58.0,29.98,NW,316,0.0,6.0,47,0.00,,,0.00,Wunderground v.1.15,2013-05-15 22:22:00,
2013-05-15 18:27:00,79.9,57.9,29.98,WNW,295,0.0,6.0,47,0.00,,,0.00,Wunderground v.1.15,2013-05-15 22:27:00,
2013-05-15 18:33:00,79.9,58.5,29.98,NNW,346,0.0,3.0,48,0.00,,,0.00,Wunderground v.1.15,2013-05-15 22:33:00,
2013-05-15 18:38:00,79.8,58.4,29.98,WNW,292,0.0,3.0,48,0.00,,,0.00,Wunderground v.1.15,2013-05-15 22:38:00,
2013-05-15 18:43:00,79.6,58.2,29.98,NNW,332,0.0,2.0,48,0.00,,,0.00,Wunderground v.1.15,2013-05-15 22:43:00,
2013-05-15 18:49:00,79.2,57.8,29.98,NNW,339,0.0,0.0,48,0.00,,,0.00,Wunderground v.1.15,2013-05-15 22:49:00,
2013-05-15 18:54:00,79.0,57.6,29.98,NNW,342,0.0,5.0,48,0.00,,,0.00,Wunderground v.1.15,2013-05-15 22:54:00,
2013-05-15 18:59:00,79.0,57.6,29.98,North,6,0.0,0.0,48,0.00,,,0.00,Wunderground v.1.15,2013-05-15 22:59:00,
2013-05-15 19:04:00,78.8,57.4,29.97,NNE,32,0.0,1.0,48,0.00,,,0.00,Wunderground v.1.15,2013-05-15 23:04:00,
2013-05-15 19:10:00,78.6,57.8,29.97,NNW,347,0.0,0.0,49,0.00,,,0.00,Wunderground v.1.15,2013-05-15 23:10:00,
2013-05-15 19:16:00,78.5,57.7,29.97,North,4,0.0,1.0,49,0.00,,,0.00,Wunderground v.1.15,2013-05-15 23:16:00,
2013-05-15 19:22:00,78.3,57.6,29.97,NW,304,0.0,0.0,49,0.00,,,0.00,Wunderground v.1.15,2013-05-15 23:22:00,
2013-05-15 19:27:00,78.1,57.9,29.97,NNE,23,0.0,0.0,50,0.00,,,0.00,Wunderground v.1.15,2013-05-15 23:27:00,
2013-05-15 19:32:00,77.9,57.8,29.97,North,11,0.0,0.0,50,0.00,,,0.00,Wunderground v.1.15,2013-05-15 23:32:00,
2013-05-15 19:37:00,77.7,57.6,29.97,North,357,0.0,0.0,50,0.00,,,0.00,Wunderground v.1.15,2013-05-15 23:37:00,
2013-05-15 19:42:00,77.6,58.0,29.97,North,357,0.0,0.0,51,0.00,,,0.00,Wunderground v.1.15,2013-05-15 23:42:00,
2013-05-15 19:47:00,77.6,58.0,29.97,North,0,0.0,0.0,51,0.00,,,0.00,Wunderground v.1.15,2013-05-15 23:47:00,
2013-05-15 19:52:00,77.4,57.9,29.97,North,0,0.0,0.0,51,0.00,,,0.00,Wunderground v.1.15,2013-05-15 23:52:00,
2013-05-15 19:58:00,77.2,57.7,29.97,North,0,0.0,0.0,51,0.00,,,0.00,Wunderground v.1.15,2013-05-15 23:58:00,
2013-05-15 20:04:00,77.0,58.0,29.97,North,0,0.0,0.0,52,0.00,,,0.00,Wunderground v.1.15,2013-05-16 00:04:00,
2013-05-15 20:09:00,76.8,57.8,29.97,North,0,0.0,0.0,52,0.00,,,0.00,Wunderground v.1.15,2013-05-16 00:09:00,
2013-05-15 20:15:00,76.5,57.6,29.97,North,0,0.0,0.0,52,0.00,,,0.00,Wunderground v.1.15,2013-05-16 00:15:00,
2013-05-15 20:21:00,76.3,57.4,29.97,North,0,0.0,0.0,52,0.00,,,0.00,Wunderground v.1.15,2013-05-16 00:21:00,
2013-05-15 20:26:00,76.1,57.7,29.97,North,0,0.0,0.0,53,0.00,,,0.00,Wunderground v.1.15,2013-05-16 00:26:00,
2013-05-15 20:31:00,75.8,58.0,29.98,North,0,0.0,0.0,54,0.00,,,0.00,Wunderground v.1.15,2013-05-16 00:31:00,
2013-05-15 20:36:00,75.6,57.8,29.98,North,0,0.0,0.0,54,0.00,,,0.00,Wunderground v.1.15,2013-05-16 00:36:00,
2013-05-15 20:41:00,75.4,57.6,29.98,North,0,0.0,0.0,54,0.00,,,0.00,Wunderground v.1.15,2013-05-16 00:41:00,
2013-05-15 20:46:00,75.3,58.0,29.98,North,0,0.0,0.0,55,0.00,,,0.00,Wunderground v.1.15,2013-05-16 00:46:00,
2013-05-15 20:52:00,75.1,57.8,29.98,North,0,0.0,0.0,55,0.00,,,0.00,Wunderground v.1.15,2013-05-16 00:52:00,
2013-05-15 20:57:00,74.9,58.1,29.98,North,0,0.0,0.0,56,0.00,,,0.00,Wunderground v.1.15,2013-05-16 00:57:00,
2013-05-15 21:02:00,74.7,58.0,29.98,North,0,0.0,0.0,56,0.00,,,0.00,Wunderground v.1.15,2013-05-16 01:02:00,
2013-05-15 21:08:00,74.6,57.9,29.98,North,0,0.0,0.0,56,0.00,,,0.00,Wunderground v.1.15,2013-05-16 01:08:00,
2013-05-15 21:13:00,74.4,57.7,29.98,North,0,0.0,0.0,56,0.00,,,0.00,Wunderground v.1.15,2013-05-16 01:13:00,
2013-05-15 21:19:00,74.2,58.0,29.98,North,0,0.0,0.0,57,0.00,,,0.00,Wunderground v.1.15,2013-05-16 01:19:00,
2013-05-15 21:24:00,74.0,57.8,29.98,North,0,0.0,0.0,57,0.00,,,0.00,Wunderground v.1.15,2013-05-16 01:24:00,
2013-05-15 21:29:00,73.9,57.7,29.98,North,0,0.0,0.0,57,0.00,,,0.00,Wunderground v.1.15,2013-05-16 01:29:00,
2013-05-15 21:35:00,73.7,57.5,29.98,North,0,0.0,0.0,57,0.00,,,0.00,Wunderground v.1.15,2013-05-16 01:35:00,
2013-05-15 21:40:00,73.5,57.3,29.98,North,0,0.0,0.0,57,0.00,,,0.00,Wunderground v.1.15,2013-05-16 01:40:00,
2013-05-15 21:46:00,73.3,57.6,29.98,North,0,0.0,0.0,58,0.00,,,0.00,Wunderground v.1.15,2013-05-16 01:46:00,
2013-05-15 21:51:00,73.2,57.5,29.98,North,0,0.0,0.0,58,0.00,,,0.00,Wunderground v.1.15,2013-05-16 01:51:00,
2013-05-15 21:58:00,73.0,57.8,29.98,North,0,0.0,0.0,59,0.00,,,0.00,Wunderground v.1.15,2013-05-16 01:58:00,
2013-05-15 22:03:00,72.8,57.6,29.99,North,0,0.0,0.0,59,0.00,,,0.00,Wunderground v.1.15,2013-05-16 02:03:00,
2013-05-15 22:09:00,72.7,57.5,29.99,North,0,0.0,0.0,59,0.00,,,0.00,Wunderground v.1.15,2013-05-16 02:09:00,
2013-05-15 22:15:00,72.5,57.8,29.99,North,0,0.0,0.0,60,0.00,,,0.00,Wunderground v.1.15,2013-05-16 02:15:00,
2013-05-15 22:20:00,72.3,57.6,30.00,North,0,0.0,0.0,60,0.00,,,0.00,Wunderground v.1.15,2013-05-16 02:20:00,
2013-05-15 22:25:00,72.1,57.4,30.00,North,0,0.0,0.0,60,0.00,,,0.00,Wunderground v.1.15,2013-05-16 02:25:00,
2013-05-15 22:30:00,72.0,57.4,30.00,North,0,0.0,0.0,60,0.00,,,0.00,Wunderground v.1.15,2013-05-16 02:30:00,
2013-05-15 22:36:00,71.8,57.6,30.00,North,0,0.0,0.0,61,0.00,,,0.00,Wunderground v.1.15,2013-05-16 02:36:00,
2013-05-15 22:41:00,71.6,57.4,30.00,North,0,0.0,0.0,61,0.00,,,0.00,Wunderground v.1.15,2013-05-16 02:41:00,
2013-05-15 22:46:00,71.5,57.8,30.00,North,0,0.0,0.0,62,0.00,,,0.00,Wunderground v.1.15,2013-05-16 02:46:00,
2013-05-15 22:51:00,71.3,57.6,30.00,North,0,0.0,0.0,62,0.00,,,0.00,Wunderground v.1.15,2013-05-16 02:51:00,
2013-05-15 22:56:00,71.1,57.9,30.00,North,0,0.0,0.0,63,0.00,,,0.00,Wunderground v.1.15,2013-05-16 02:56:00,
2013-05-15 23:01:00,71.1,57.9,30.00,North,0,0.0,0.0,63,0.00,,,0.00,Wunderground v.1.15,2013-05-16 03:01:00,
2013-05-15 23:07:00,70.9,58.1,30.00,North,0,0.0,0.0,64,0.00,,,0.00,Wunderground v.1.15,2013-05-16 03:07:00,
2013-05-15 23:12:00,70.9,58.1,30.00,North,0,0.0,0.0,64,0.00,,,0.00,Wunderground v.1.15,2013-05-16 03:12:00,
2013-05-15 23:19:00,70.8,58.0,30.00,North,0,0.0,0.0,64,0.00,,,0.00,Wunderground v.1.15,2013-05-16 03:19:00,
2013-05-15 23:24:00,70.6,58.3,30.00,North,0,0.0,0.0,65,0.00,,,0.00,Wunderground v.1.15,2013-05-16 03:24:00,
2013-05-15 23:30:00,70.6,58.3,30.00,East,85,0.0,0.0,65,0.00,,,0.00,Wunderground v.1.15,2013-05-16 03:30:00,
2013-05-15 23:35:00,70.4,58.5,30.00,East,85,0.0,0.0,66,0.00,,,0.00,Wunderground v.1.15,2013-05-16 03:35:00,
2013-05-15 23:40:00,70.3,58.4,30.00,ESE,120,0.0,0.0,66,0.00,,,0.00,Wunderground v.1.15,2013-05-16 03:40:00,
2013-05-15 23:45:00,70.3,58.4,29.99,ESE,120,0.0,0.0,66,0.00,,,0.00,Wunderground v.1.15,2013-05-16 03:45:00,
2013-05-15 23:50:00,70.1,58.2,29.99,ESE,120,0.0,0.0,66,0.00,,,0.00,Wunderground v.1.15,2013-05-16 03:50:00,
2013-05-15 23:56:00,69.9,58.0,29.99,ESE,120,0.0,0.0,66,0.00,,,0.00,Wunderground v.1.15,2013-05-16 03:56:00,